AURA

Last updated on Wed Oct 22 2025 00:02:29 GMT+0000 (Coordinated Universal Time)

1 28376U 04026A 25294.59761709 .00002003 00000+0 42031-3 0 9991 2 28376 98.3091 244.6133 0001410 66.7700 293.3648 14.60760205131374
UTC large
Height (km)
Speed (km/s)
/
Latitude / Longitude
Inclination (degrees)
Orbital Period (minutes)
Azimuth
Elevation
Range (km)
Doppler Factor

Next 0 passes for location: London (51.5072 / 0.1276)

Sorry there are no passes over London.